[[{"header":{"parameterUnit":"m.s-1","parameterCategory":1,"la1":30.2991,"la2":30.254,"lo1":-89.0895,"lo2":-89.0444,"dy":0.0017,"dx":0.0017,"nx":28,"ny":28,"refTime":"2023-11-02T03:00:00:Z","depth":0,"parameterNumber":2,"parameterNumberName":"U-component_of_WINDS"},"data":[0,0,0,0,0,0,0,0,0,0,0,0,0,0,0,0,0,0,0,0,0,0,0,0,0,0,0,0,0,0,0,0,0,0,0,0,0,0,0,0,0,0,0,0,0,0,0,0,0,0,0,0,0,0,0,0,0,0,-2.172,-2.1721,0,-2.1775,-2.1775,-2.1776,-2.1648,-2.1643,-2.1639,-2.1635,-2.1693,-2.1698,-2.1703,0,0,0,0,0,0,0,0,0,0,0,0,0,-2.1506,-2.151,-2.172,-2.1721,-2.1722,-2.1774,-2.1775,-2.1776,-2.1648,-2.1643,-2.1638,-2.1634,-2.1691,-2.1697,-2.1704,0,0,0,0,0,0,0,0,0,0,0,0,0,-2.1584,-2.1512,-2.172,-2.1664,-2.166,-2.1774,-2.1775,-2.1776,-2.1649,-2.1643,-2.1637,-2.1631,-2.1689,-2.1697,-2.1705,-2.1877,0,0,-2.1729,-2.1733,0,0,0,0,0,0,0,0,-2.1579,-2.1592,-2.1672,-2.1668,-2.1663,-2.1698,-2.172,-2.181,-2.1651,-2.1653,-2.1635,-2.1628,-2.17,-2.1706,-2.173,-2.1879,-2.1882,-2.173,-2.1735,-2.1738,-2.174,0,0,0,0,0,0,0,-2.1574,-2.1589,-2.1742,-2.1673,-2.1668,-2.1636,-2.1641,-2.1737,-2.171,-2.1653,-2.1643,-2.1652,-2.1696,-2.1723,-2.173,-2.1883,-2.173,-2.1737,-2.1742,-2.1745,-2.2175,-2.2181,0,0,0,0,0,0,-2.1576,-2.1585,-2.174,-2.1743,-2.1605,-2.1645,-2.165,-2.1693,-2.1709,-2.1705,-2.1657,-2.1645,-2.1712,-2.1721,-2.1732,-2.1935,-2.1738,-2.1746,-2.175,-2.2168,-2.2176,-2.2183,0,0,0,0,0,0,-2.1572,-2.1591,-2.1738,-2.1662,-2.1678,-2.1655,-2.1705,-2.1697,-2.1724,-2.1712,-2.1706,-2.1689,-2.1708,-2.1721,-2.1841,-2.1935,-2.1749,-2.1756,-2.216,-2.2171,-2.218,-2.2342,0,0,0,0,0,0,-2.1566,-2.159,-2.1656,-2.1664,-2.1682,-2.1847,-2.1711,-2.1703,-2.1738,-2.1723,-2.1741,-2.1737,-2.1704,-2.183,-2.1849,-2.1943,-2.1763,-2.2152,-2.2165,-2.2177,-2.2328,-2.2356,-2.238,0,0,0,0,0,-2.1559,-2.1699,-2.1659,-2.1679,-2.1764,-2.1853,-2.1863,-2.1821,-2.1746,-2.1811,-2.1803,-2.1737,-2.1921,-2.1844,-2.1864,-2.1961,-2.2146,-2.2161,-2.2176,-2.2317,-2.2351,-2.238,0,0,0,0,0,0,-2.1704,-2.17,-2.1655,-2.1803,-2.1829,-2.1831,-2.1912,-2.1859,-2.1907,-2.1892,-2.1837,-2.1843,-2.1974,-2.1979,-2.1893,-2.2128,-2.2021,-2.204,-2.2121,-2.2153,-2.2179,-2.2176,-2.1769,0,0,0,0,0,-2.1752,-2.1825,-2.1817,-2.1948,-2.1963,-2.1936,-2.1973,-2.1938,-2.1963,-2.1974,-2.1974,-2.2002,-2.2065,-2.2109,-2.2167,-2.2327,-2.2329,-2.2404,-2.243,-2.2451,-2.247,-2.2555,-2.2589,-2.2232,-2.2232,-2.2232,0,0,-2.1855,-2.1861,-2.1911,-2.1977,-2.1993,-2.207,-2.1946,-2.2032,-2.2089,-2.1987,-2.2101,-2.2103,-2.2129,-2.2271,-2.2333,-2.2279,-2.2568,-2.247,-2.2487,-2.2495,-2.2574,-2.2608,-2.2638,-2.2243,-2.2241,-2.2239,0,0,-2.2081,-2.2092,-2.2203,-2.2221,-2.2247,-2.2227,-2.2254,-2.2263,-2.226,-2.2374,-2.2299,-2.2364,-2.2475,-2.2497,-2.2523,-2.2755,-2.2696,-2.2775,-2.2912,-2.2996,-2.3024,-2.3049,-2.3133,-2.3164,-2.2793,-2.2794,-2.2794,0,-2.2205,-2.2317,-2.2267,-2.2358,-2.239,-2.2299,-2.2411,-2.2431,-2.2475,-2.2499,-2.2437,-2.2574,-2.2585,-2.2731,-2.2787,-2.281,-2.284,-2.2775,-2.3024,-2.3048,-2.3071,-2.315,-2.3182,-2.2803,-2.2802,-2.2801,-2.28,0,-2.2469,-2.2548,-2.2634,-2.2678,-2.2719,-2.282,-2.2785,-2.2832,-2.2793,-2.278,-2.2896,-2.2906,-2.2965,-2.2995,-2.2958,-2.3136,-2.3102,-2.3033,-2.2925,-2.3115,-2.3189,-2.3219,-2.2817,-2.2813,-2.2811,-2.2808,0,0,-2.2791,-2.2804,-2.2837,-2.2856,-2.2876,-2.2936,-2.3032,-2.3089,-2.3131,-2.3163,-2.3243,-2.3338,-2.3274,-2.3303,-2.3267,-2.334,-2.3525,-2.3262,-2.3262,-2.3313,-2.3722,-2.3776,-2.3812,-2.3484,-2.349,-2.3494,-2.3721,0,-2.3016,-2.3182,-2.3139,-2.3304,-2.3377,-2.329,-2.3374,-2.3396,-2.3385,-2.3445,-2.3433,-2.3502,-2.3411,-2.3429,-2.3497,-2.3488,-2.3607,-2.3471,-2.356,-2.3564,-2.3559,-2.385,-2.3908,-2.4121,-2.3749,-2.3754,-2.3757,0,-2.3302,-2.3344,-2.3517,-2.3525,-2.3554,-2.363,-2.3678,-2.3736,-2.3758,-2.3745,-2.3777,-2.3725,-2.382,-2.3709,-2.3839,-2.3747,-2.378,-2.3781,-2.3788,-2.3798,-2.3674,-2.387,-2.4188,-2.4221,-2.3802,-2.3799,-2.3795,0,-2.3522,-2.3622,-2.3739,-2.3757,-2.3768,-2.3824,-2.3832,-2.3847,-2.3884,-2.3925,-2.3948,-2.4,-2.4029,-2.4071,-2.4034,-2.3956,-2.4171,-2.4056,-2.4164,-2.4165,-2.4216,-2.4214,-2.4547,-2.4233,-2.4233,-2.4232,-2.4231,0,-2.3779,-2.3889,-2.3838,-2.391,-2.403,-2.3977,-2.4098,-2.4095,-2.4109,-2.4179,-2.4107,-2.4174,-2.412,-2.4183,-2.4155,-2.4268,-2.4281,-2.4273,-2.4265,-2.4282,-2.4283,-2.4305,-2.429,-2.4241,-2.4239,-2.4237,-2.4236,0,-2.4047,-2.4017,-2.4139,-2.4139,-2.4141,-2.423,-2.423,-2.4296,-2.4279,-2.4368,-2.4386,-2.436,-2.4429,-2.4396,-2.4469,-2.445,-2.4596,-2.4566,-2.4589,-2.4582,-2.4693,-2.4684,-2.5054,-2.51,-2.4755,-2.4758,-2.4761,0,-2.4215,-2.4297,-2.4306,-2.4347,-2.4359,-2.4427,-2.4463,-2.4414,-2.4455,-2.4485,-2.4549,-2.4611,-2.466,-2.4774,-2.4762,-2.4817,-2.479,-2.4915,-2.4798,-2.4812,-2.4794,-2.4791,-2.4799,-2.494,-2.4944,-2.4947,-2.495,0,-2.4517,-2.4497,-2.4552,-2.4603,-2.4648,-2.4685,-2.4716,-2.4754,-2.4706,-2.4755,-2.4825,-2.4862,-2.4935,-2.4999,-2.5047,-2.5053,-2.4995,-2.4987,-2.5015,-2.5034,-2.5045,-2.5042,-2.4656,-2.4979,-2.4976,-2.4974,-2.4973,-2.4971,-2.4741,-2.481,-2.4827,-2.4891,-2.4908,-2.4939,-2.5001,-2.4991,-2.5048,-2.5104,-2.5071,-2.5153,-2.5172,-2.5229,-2.5244,-2.5307,-2.5257,-2.5298,-2.5309,-2.532,-2.5336,-2.5032,-2.5315,-2.5314,-2.5314,-2.5313,-2.5312,0,-2.5041,-2.5047,-2.5106,-2.5151,-2.5201,-2.5139,-2.5169,-2.5216,-2.5289,-2.5311,-2.5359,-2.5439,-2.55,-2.5491,-2.5546,-2.5599,-2.5573,-2.5615,-2.5612,-2.5615,-2.5376,-2.5348,-2.5635,-2.5635,-2.5635,-2.5635,-2.5635,-2.5635,-2.5203,-2.5317,-2.5299,-2.5421,-2.5425,-2.5505,-2.5528,-2.5555,-2.5572,-2.5665,-2.5715,-2.5708,-2.5718,-2.5773,-2.5826,-2.5821,-2.5846,-2.5899,-2.5885,-2.5664,-2.5632,-2.5601,-2.5574,-2.5904,-2.5905,-2.6119,-2.6121,-2.6122]},{"header":{"parameterUnit":"m.s-1","parameterCategory":1,"la1":30.2991,"la2":30.254,"lo1":-89.0895,"lo2":-89.0444,"dy":0.0017,"dx":0.0017,"nx":28,"ny":28,"refTime":"2023-11-02T03:00:00:Z","depth":0,"parameterNumber":3,"parameterNumberName":"V-component_of_WINDS"},"data":[0,0,0,0,0,0,0,0,0,0,0,0,0,0,0,0,0,0,0,0,0,0,0,0,0,0,0,0,0,0,0,0,0,0,0,0,0,0,0,0,0,0,0,0,0,0,0,0,0,0,0,0,0,0,0,0,0,0,-6.4328,-6.4329,0,-6.4465,-6.4467,-6.4468,-6.4361,-6.4356,-6.4351,-6.4347,-6.4481,-6.4489,-6.4497,0,0,0,0,0,0,0,0,0,0,0,0,0,-6.3965,-6.3972,-6.4328,-6.433,-6.4331,-6.4465,-6.4467,-6.4469,-6.4361,-6.4356,-6.435,-6.4345,-6.4479,-6.4488,-6.4497,0,0,0,0,0,0,0,0,0,0,0,0,0,-6.4114,-6.3975,-6.4327,-6.4294,-6.4292,-6.4465,-6.4467,-6.4469,-6.4363,-6.4356,-6.4349,-6.4342,-6.4475,-6.4487,-6.4499,-6.4709,0,0,-6.4535,-6.454,0,0,0,0,0,0,0,0,-6.4106,-6.4128,-6.4297,-6.4297,-6.4295,-6.4389,-6.4388,-6.4549,-6.4364,-6.4336,-6.4347,-6.4339,-6.4456,-6.4469,-6.4509,-6.4715,-6.4721,-6.4536,-6.4543,-6.4548,-6.4551,0,0,0,0,0,0,0,-6.4096,-6.4121,-6.4382,-6.43,-6.4299,-6.4269,-6.4283,-6.4418,-6.4432,-6.4338,-6.433,-6.4348,-6.4454,-6.4498,-6.4512,-6.4723,-6.4535,-6.4546,-6.4553,-6.4558,-6.5106,-6.5114,0,0,0,0,0,0,-6.409,-6.4113,-6.4377,-6.4386,-6.4182,-6.4282,-6.4297,-6.4366,-6.4431,-6.4434,-6.4354,-6.4343,-6.4481,-6.4498,-6.4516,-6.4766,-6.4548,-6.4559,-6.4566,-6.5099,-6.5108,-6.5116,0,0,0,0,0,0,-6.4082,-6.4114,-6.4372,-6.4248,-6.4278,-6.4295,-6.4373,-6.4372,-6.4416,-6.4443,-6.4444,-6.4398,-6.4477,-6.4499,-6.4662,-6.4769,-6.4564,-6.4575,-6.509,-6.5102,-6.5112,-6.5268,0,0,0,0,0,0,-6.4072,-6.4112,-6.4195,-6.4251,-6.4286,-6.4519,-6.438,-6.438,-6.4438,-6.4424,-6.4484,-6.4487,-6.4473,-6.4645,-6.4674,-6.4781,-6.4584,-6.5081,-6.5095,-6.5109,-6.5253,-6.5283,-6.5309,0,0,0,0,0,-6.406,-6.4232,-6.4199,-6.4232,-6.4389,-6.4525,-6.4545,-6.4527,-6.4447,-6.4528,-6.4545,-6.4485,-6.4753,-6.4662,-6.4694,-6.4807,-6.5074,-6.5091,-6.5108,-6.5241,-6.5277,-6.5308,0,0,0,0,0,0,-6.4186,-6.4239,-6.4203,-6.4399,-6.4459,-6.4507,-6.4609,-6.4566,-6.4648,-6.4632,-6.4603,-6.4617,-6.4788,-6.4813,-6.4712,-6.5013,-6.49,-6.4924,-6.4991,-6.5025,-6.5053,-6.5043,-6.4594,0,0,0,0,0,-6.4237,-6.4346,-6.4385,-6.4553,-6.4585,-6.4593,-6.4651,-6.4632,-6.4691,-6.4716,-6.4744,-6.4803,-6.4899,-6.4963,-6.5054,-6.5256,-6.5266,-6.5349,-6.5376,-6.5399,-6.542,-6.5527,-6.5564,-6.5172,-6.5172,-6.5171,0,0,-6.4343,-6.4385,-6.4455,-6.458,-6.4624,-6.4734,-6.4614,-6.4737,-6.4818,-6.4733,-6.4889,-6.4912,-6.4975,-6.5158,-6.524,-6.5184,-6.5531,-6.5421,-6.5439,-6.5447,-6.5548,-6.5585,-6.5618,-6.5183,-6.5181,-6.5179,0,0,-6.4592,-6.4636,-6.4781,-6.4828,-6.4896,-6.49,-6.4934,-6.4989,-6.5002,-6.5158,-6.5097,-6.5191,-6.5359,-6.5406,-6.5452,-6.5718,-6.5665,-6.5748,-6.5892,-6.5997,-6.6028,-6.6055,-6.6149,-6.6183,-6.5768,-6.5769,-6.5769,0,-6.4715,-6.4881,-6.486,-6.4988,-6.5043,-6.4974,-6.5119,-6.5164,-6.5258,-6.5297,-6.5234,-6.5442,-6.5479,-6.5672,-6.5737,-6.5776,-6.5813,-6.5741,-6.6025,-6.6052,-6.6077,-6.6166,-6.6202,-6.5778,-6.5777,-6.5776,-6.5775,0,-6.5028,-6.5144,-6.5252,-6.5347,-6.5415,-6.555,-6.5547,-6.5618,-6.5592,-6.5601,-6.576,-6.5802,-6.59,-6.5944,-6.5919,-6.6132,-6.6096,-6.603,-6.5915,-6.6125,-6.6208,-6.6242,-6.5792,-6.5789,-6.5786,-6.5783,0,0,-6.5361,-6.5442,-6.5483,-6.5524,-6.5594,-6.5682,-6.5813,-6.591,-6.5971,-6.6037,-6.6145,-6.6288,-6.6227,-6.6279,-6.6259,-6.6351,-6.6557,-6.6273,-6.6274,-6.6324,-6.6793,-6.6842,-6.6882,-6.6523,-6.6529,-6.6534,-6.6787,0,-6.5614,-6.5845,-6.5829,-6.6045,-6.6151,-6.6086,-6.6199,-6.6253,-6.6265,-6.6354,-6.6365,-6.6467,-6.638,-6.641,-6.6498,-6.6514,-6.6651,-6.6495,-6.6621,-6.6625,-6.6607,-6.6926,-6.6979,-6.7216,-6.682,-6.6825,-6.6829,0,-6.5939,-6.6019,-6.6247,-6.63,-6.6344,-6.6447,-6.6533,-6.6621,-6.6679,-6.6681,-6.6739,-6.6703,-6.6832,-6.6715,-6.6892,-6.6786,-6.6836,-6.6851,-6.686,-6.687,-6.674,-6.6945,-6.7291,-6.7326,-6.688,-6.6876,-6.6873,0,-6.6159,-6.6323,-6.648,-6.6518,-6.6584,-6.6657,-6.6688,-6.674,-6.6799,-6.6873,-6.6911,-6.6999,-6.7048,-6.7116,-6.7103,-6.702,-6.7283,-6.7165,-6.7286,-6.7287,-6.7345,-6.7341,-6.7703,-6.7378,-6.7377,-6.7377,-6.7376,0,-6.6442,-6.6584,-6.658,-6.6677,-6.6832,-6.6811,-6.6965,-6.6986,-6.7033,-6.7131,-6.7078,-6.7171,-6.7149,-6.724,-6.7231,-6.7378,-6.74,-6.7403,-6.7399,-6.7408,-6.7408,-6.744,-6.7423,-6.7386,-6.7384,-6.7382,-6.738,0,-6.6715,-6.6718,-6.6885,-6.6934,-6.6949,-6.7062,-6.7102,-6.7192,-6.7199,-6.7323,-6.7351,-6.7361,-6.7465,-6.746,-6.7577,-6.757,-6.7751,-6.7728,-6.7733,-6.7727,-6.7849,-6.7837,-6.8244,-6.8296,-6.7937,-6.7941,-6.7944,0,-6.6895,-6.7003,-6.7064,-6.7127,-6.7162,-6.7264,-6.7324,-6.7306,-6.737,-6.7445,-6.7525,-6.7625,-6.7704,-6.7873,-6.7889,-6.7978,-6.7956,-6.8092,-6.7969,-6.7974,-6.7957,-6.7951,-6.7961,-6.8117,-6.8121,-6.8124,-6.8127,0,-6.7215,-6.7211,-6.7301,-6.7393,-6.7466,-6.7536,-6.76,-6.7654,-6.7642,-6.7717,-6.7824,-6.7885,-6.8005,-6.8104,-6.8189,-6.8217,-6.817,-6.8165,-6.8198,-6.8208,-6.8206,-6.8208,-6.7798,-6.8156,-6.8153,-6.8151,-6.8149,-6.8148,-6.7447,-6.7539,-6.7596,-6.7698,-6.7744,-6.7805,-6.7892,-6.791,-6.8,-6.8098,-6.8081,-6.82,-6.8253,-6.8363,-6.8399,-6.849,-6.8441,-6.8489,-6.85,-6.8512,-6.8526,-6.8192,-6.8505,-6.8504,-6.8504,-6.8503,-6.8502,0,-6.7763,-6.7797,-6.7891,-6.7983,-6.8062,-6.8013,-6.808,-6.8149,-6.8256,-6.8311,-6.839,-6.8512,-6.8607,-6.8631,-6.8722,-6.879,-6.8771,-6.8814,-6.8809,-6.8816,-6.8565,-6.8528,-6.8829,-6.8829,-6.8829,-6.8828,-6.8828,-6.8828,-6.7938,-6.8091,-6.8094,-6.8268,-6.83,-6.8418,-6.8461,-6.8516,-6.8559,-6.8699,-6.8779,-6.8794,-6.8836,-6.8929,-6.9013,-6.9017,-6.9053,-6.9106,-6.9101,-6.8866,-6.8834,-6.8803,-6.8767,-6.9114,-6.9114,-6.9344,-6.9347,-6.9348]}]]